KB0ZXY Weather Reports


Display with metric or nautical units.
time (UTC)temp
F
wind
direction
speed
MPH
gust
MPH
rain 1hr
in
rain 24hr
in
rain mn
in
humidity
%
barometer
mb
20180622233509 71 316 3.0 8.0 0.00 0.00 0.00 76 1007.1
20180622222553 72 317 3.0 5.0 0.00 0.00 0.00 75 1007.5
20180622220402 72 338 3.0 7.0 0.00 0.00 0.00 74 1007.6
20180622215454 72 306 2.0 7.0 0.00 0.01 0.00 76 1007.7
20180622214600 72 342 4.0 8.0 0.00 0.01 0.00 75 1007.7
20180622213558 73 293 4.0 10.0 0.00 0.01 0.00 74 1007.6
20180622211423 75 257 4.0 8.0 0.00 0.01 0.00 71 1007.7
20180622190513 74 234 3.0 9.0 0.00 0.01 0.00 73 1008.6
20180622185357 74 314 2.0 9.0 0.00 0.01 0.00 73 1008.8
20180622182455 73 303 3.0 8.0 0.00 0.01 0.00 75 1008.9
20180622180508 72 323 1.0 4.0 0.00 0.01 0.00 76 1009.0
20180622175347 72 209 2.0 5.0 0.00 0.01 0.00 76 1008.9
20180622173359 72 296 1.0 3.0 0.00 0.01 0.00 77 1008.9
20180622172450 72 301 2.0 6.0 0.00 0.01 0.00 78 1008.8
20180622171359 72 5 2.0 5.0 0.00 0.01 0.00 75 1008.8
20180622162542 71 316 4.0 10.0 0.00 0.01 0.00 76 1008.8
20180622161408 72 311 3.0 6.0 0.00 0.01 0.00 76 1008.6
20180622152352 72 271 1.0 5.0 0.00 0.01 0.00 75 1008.5
20180622144554 69 269 2.0 7.0 0.00 0.01 0.00 81 1008.7
20180622140355 68 355 3.0 8.0 0.00 0.01 0.00 85 1008.6
20180622135343 68 293 3.0 6.0 0.00 0.01 0.00 86 1008.6
20180622133532 68 315 2.0 5.0 0.00 0.01 0.00 86 1008.4
20180622130544 68 340 3.0 6.0 0.00 0.01 0.00 89 1008.0
20180622125544 68 346 2.0 6.0 0.00 0.01 0.00 90 1007.8
20180622122340 67 323 3.0 7.0 0.00 0.01 0.00 91 1007.7
20180622115425 67 329 1.0 7.0 0.00 0.01 0.00 92 1007.6
20180622114352 67 313 1.0 4.0 0.00 0.01 0.00 92 1007.6
20180622113400 67 302 2.0 6.0 0.00 0.01 0.00 92 1007.5
20180622112451 67 309 2.0 5.0 0.00 0.01 0.00 92 1007.3
20180622104351 67 332 2.0 6.0 0.00 0.01 0.00 92 1007.1
20180622085533 66 292 2.0 3.0 0.00 0.01 0.00 94 1006.3
20180622082338 65 286 0.0 2.0 0.00 0.01 0.00 95 1006.3
20180622074358 65 288 0.0 0.0 0.00 0.01 0.00 94 1006.4
20180622072522 65 288 0.0 1.0 0.00 0.01 0.00 94 1006.3
20180622064600 65 236 0.0 1.0 0.00 0.02 0.00 93 1006.3
20180622060534 65 232 0.0 0.0 0.00 0.02 0.00 92 1006.4
20180622055337 65 232 0.0 0.0 0.00 0.02 0.00 91 1006.3
20180622052531 66 232 0.0 0.0 0.00 0.02 0.00 90 1006.6
20180622040423 68 232 1.0 2.0 0.00 0.02 0.02 88 1006.7
20180622035550 68 232 0.0 2.0 0.00 0.02 0.02 88 1006.9
20180622030429 68 274 1.0 4.0 0.00 0.02 0.02 87 1006.7
20180622023404 68 294 1.0 4.0 0.00 0.02 0.02 86 1006.4
20180622014346 69 234 1.0 8.0 0.00 0.02 0.02 83 1005.8
20180622010342 69 237 2.0 6.0 0.00 0.02 0.02 82 1005.5
20180622002345 70 234 2.0 5.0 0.00 0.02 0.02 81 1005.1